History for KNJHOBOK30

Greenwich Village, Hoboken, NJ — Current Conditions
Daily Summary for June 28, 2017
  Current: High: Low: Average:
Temperature: 68.9°F 72.9°F 68.9°F 70.9°F
Dew Point: 48.7°F 50.0°F 47.6°F 48.6°F
Humidity: 48% 48% 43% 45%
Wind Speed: - 0.0mph - 0.0mph
Wind Gust: - 0.0mph - -
Wind: North - - North
Pressure: 30.14in 30.14in 30.06in -
Precipitation: 0.00in      
Statistics for the rest of the month
    High: Low: Average:
Temperature:   87.3°F 58.5°F 73.2°F
Dew Point:   85.1°F 30.7°F 57.3°F
Humidity:   100.0% 19.0% 60.7%
Wind Speed:   0.0mph from the North - 0.0mph
Wind Gust:   0.0mph from the North - -
Wind:   - - North
Pressure:   30.14in 29.60in -
Precipitation:   0.00in    
KNJHOBOK30 Weather Graph
Tabular Data for June 28, 2017
Time Temp. Dew Point Pressure Wind Gust Humidity Rainfall
00:05 72.9°F 50.0°F 30.06in - 44% -
00:15 72.7°F 49.8°F 30.06in - 44% -
00:25 72.5°F 49.1°F 30.06in - 43% -
00:35 72.3°F 49.5°F 30.07in - 44% -
00:45 72.1°F 49.3°F 30.07in - 44% -
01:05 72.0°F 49.2°F 30.07in - 44% -
01:15 71.8°F 49.0°F 30.07in - 44% -
01:25 71.6°F 48.9°F 30.07in - 44% -
01:35 71.4°F 48.1°F 30.07in - 43% -
01:45 71.2°F 49.1°F 30.07in - 45% -
02:05 71.1°F 49.0°F 30.07in - 45% -
02:15 70.9°F 48.2°F 30.08in - 44% -
02:25 70.5°F 47.9°F 30.08in - 44% -
02:35 70.3°F 48.3°F 30.09in - 45% -
02:45 70.2°F 48.1°F 30.09in - 45% -
03:05 70.0°F 48.5°F 30.09in - 46% -
03:15 70.2°F 48.1°F 30.09in - 45% -
03:25 70.2°F 48.1°F 30.09in - 45% -
03:35 70.0°F 48.0°F 30.09in - 45% -
03:45 70.0°F 48.0°F 30.09in - 45% -
04:05 69.8°F 47.8°F 30.10in - 45% -
04:15 69.8°F 48.4°F 30.10in - 46% -
04:25 69.6°F 47.6°F 30.11in - 45% -
04:35 69.3°F 47.9°F 30.11in - 46% -
04:45 69.3°F 47.9°F 30.11in - 46% -
05:16 69.3°F 48.4°F 30.12in - 47% -
05:26 69.3°F 48.4°F 30.12in - 47% -
05:46 69.1°F 48.8°F 30.13in - 48% -
06:16 69.1°F 48.8°F 30.14in - 48% -
06:36 68.9°F 48.7°F 30.14in - 48% -
Comma Delimited File
Powered by Weather Underground, Inc.